| time (UTC) | temp F | wind direction | speed MPH | gust MPH | rain 1hr in | rain 24hr in | rain mn in | humidity % | barometer mb |
| 20260504160125 | 68 | 183 | 8.0 | 11.0 | 0.00 | 0.00 | 0.00 | 56 | 993.8 |
| 20260504151122 | 70 | 226 | 5.0 | 9.0 | 0.00 | 0.00 | 0.00 | 52 | 994.2 |
| 20260504150125 | 70 | 192 | 5.0 | 9.0 | 0.00 | 0.00 | 0.00 | 52 | 994.2 |
| 20260504141122 | 73 | 186 | 6.0 | 11.0 | 0.00 | 0.00 | 0.00 | 51 | 994.4 |
| 20260504140122 | 71 | 195 | 6.0 | 10.0 | 0.00 | 0.00 | 0.00 | 52 | 994.4 |
| 20260504130122 | 63 | 185 | 5.0 | 8.0 | 0.00 | 0.00 | 0.00 | 65 | 995.1 |
| 20260504120124 | 61 | 174 | 6.0 | 8.0 | 0.00 | 0.00 | 0.00 | 68 | 995.2 |
| 20260504110146 | 61 | 191 | 5.0 | 7.0 | 0.00 | 0.00 | 0.00 | 65 | 995.2 |
| 20260504100122 | 63 | 192 | 5.0 | 8.0 | 0.00 | 0.00 | 0.00 | 62 | 995.2 |
| 20260504090122 | 63 | 185 | 4.0 | 8.0 | 0.00 | 0.00 | 0.00 | 62 | 995.2 |
| 20260504081124 | 65 | 151 | 2.0 | 4.0 | 0.00 | 0.00 | 0.00 | 60 | 995.2 |
| 20260504080122 | 64 | 132 | 2.0 | 5.0 | 0.00 | 0.00 | 0.00 | 61 | 995.2 |
| 20260504070124 | 64 | 141 | 1.0 | 3.0 | 0.00 | 0.00 | 0.00 | 61 | 995.7 |
| 20260504060122 | 66 | 356 | 6.0 | 8.0 | 0.00 | 0.00 | 0.00 | 56 | 996.6 |
| 20260504050122 | 68 | 209 | 6.0 | 12.0 | 0.00 | 0.00 | 0.00 | 51 | 994.8 |
| 20260504045122 | 68 | 214 | 5.0 | 7.0 | 0.00 | 0.00 | 0.00 | 51 | 994.7 |
| 20260504044122 | 68 | 179 | 4.0 | 8.0 | 0.00 | 0.00 | 0.00 | 52 | 994.8 |
| 20260504043123 | 67 | 198 | 3.0 | 5.0 | 0.00 | 0.00 | 0.00 | 53 | 995.4 |
| 20260504042124 | 68 | 177 | 4.0 | 9.0 | 0.00 | 0.00 | 0.00 | 53 | 995.4 |
| 20260504041124 | 69 | 173 | 5.0 | 8.0 | 0.00 | 0.00 | 0.00 | 50 | 995.8 |
| 20260504040122 | 69 | 199 | 5.0 | 7.0 | 0.00 | 0.00 | 0.00 | 49 | 995.8 |
| 20260504035122 | 68 | 198 | 4.0 | 6.0 | 0.00 | 0.00 | 0.00 | 49 | 996.2 |
| 20260504034122 | 68 | 191 | 4.0 | 5.0 | 0.00 | 0.00 | 0.00 | 49 | 996.2 |
| 20260504033122 | 68 | 176 | 4.0 | 5.0 | 0.00 | 0.00 | 0.00 | 49 | 996.2 |
| 20260504032122 | 69 | 175 | 3.0 | 5.0 | 0.00 | 0.00 | 0.00 | 49 | 996.4 |
| 20260504031124 | 69 | 170 | 1.0 | 4.0 | 0.00 | 0.00 | 0.00 | 48 | 996.2 |
| 20260504030124 | 70 | 190 | 3.0 | 5.0 | 0.00 | 0.00 | 0.00 | 46 | 996.2 |
| 20260504025123 | 70 | 188 | 2.0 | 4.0 | 0.00 | 0.00 | 0.00 | 46 | 996.4 |
| 20260504024122 | 70 | 209 | 2.0 | 5.0 | 0.00 | 0.00 | 0.00 | 45 | 996.2 |
| 20260504023122 | 71 | 191 | 3.0 | 6.0 | 0.00 | 0.00 | 0.00 | 44 | 996.1 |
| 20260504022143 | 71 | 178 | 4.0 | 6.0 | 0.00 | 0.00 | 0.00 | 43 | 996.0 |
| 20260504021122 | 71 | 195 | 4.0 | 7.0 | 0.00 | 0.00 | 0.00 | 42 | 995.8 |
| 20260504020122 | 71 | 181 | 4.0 | 8.0 | 0.00 | 0.00 | 0.00 | 42 | 995.8 |
| 20260504015124 | 72 | 180 | 5.0 | 8.0 | 0.00 | 0.00 | 0.00 | 42 | 995.7 |
| 20260504014124 | 72 | 176 | 6.0 | 10.0 | 0.00 | 0.00 | 0.00 | 41 | 995.6 |
| 20260504013123 | 73 | 176 | 5.0 | 7.0 | 0.00 | 0.00 | 0.00 | 40 | 995.6 |
| 20260504012122 | 73 | 191 | 5.0 | 7.0 | 0.00 | 0.00 | 0.00 | 39 | 995.5 |
| 20260504011122 | 75 | 193 | 4.0 | 10.0 | 0.00 | 0.00 | 0.00 | 38 | 995.5 |
| 20260504010143 | 75 | 184 | 4.0 | 7.0 | 0.00 | 0.00 | 0.00 | 38 | 995.5 |
| 20260504005122 | 75 | 214 | 4.0 | 7.0 | 0.00 | 0.00 | 0.00 | 38 | 995.2 |
| 20260504004122 | 76 | 208 | 5.0 | 8.0 | 0.00 | 0.00 | 0.00 | 36 | 995.4 |
| 20260504003145 | 76 | 199 | 5.0 | 8.0 | 0.00 | 0.00 | 0.00 | 36 | 995.4 |
| 20260504002123 | 76 | 222 | 5.0 | 10.0 | 0.00 | 0.00 | 0.00 | 36 | 995.4 |
| 20260504001124 | 77 | 219 | 6.0 | 10.0 | 0.00 | 0.00 | 0.00 | 34 | 995.6 |
| 20260504000122 | 77 | 213 | 7.0 | 11.0 | 0.00 | 0.00 | 0.00 | 33 | 995.6 |
| 20260503235143 | 78 | 231 | 6.0 | 11.0 | 0.00 | 0.00 | 0.00 | 32 | 995.7 |
| 20260503234122 | 78 | 222 | 6.0 | 8.0 | 0.00 | 0.00 | 0.00 | 32 | 995.8 |
| 20260503233122 | 79 | 241 | 4.0 | 9.0 | 0.00 | 0.00 | 0.00 | 31 | 995.8 |
| 20260503232143 | 79 | 235 | 6.0 | 13.0 | 0.00 | 0.00 | 0.00 | 31 | 996.0 |
| 20260503231144 | 80 | 233 | 7.0 | 12.0 | 0.00 | 0.00 | 0.00 | 30 | 996.1 |
| 20260503230124 | 79 | 215 | 6.0 | 10.0 | 0.00 | 0.00 | 0.00 | 30 | 996.1 |
| 20260503225124 | 80 | 234 | 6.0 | 12.0 | 0.00 | 0.00 | 0.00 | 29 | 996.1 |
| 20260503224122 | 81 | 228 | 6.0 | 11.0 | 0.00 | 0.00 | 0.00 | 29 | 996.1 |
| 20260503223122 | 80 | 223 | 6.0 | 8.0 | 0.00 | 0.00 | 0.00 | 29 | 996.2 |
| 20260503222122 | 80 | 213 | 6.0 | 12.0 | 0.00 | 0.00 | 0.00 | 28 | 996.2 |
| 20260503221122 | 80 | 210 | 7.0 | 11.0 | 0.00 | 0.00 | 0.00 | 29 | 996.4 |
| 20260503220145 | 80 | 209 | 6.0 | 9.0 | 0.00 | 0.00 | 0.00 | 29 | 996.4 |
| 20260503215124 | 79 | 207 | 7.0 | 12.0 | 0.00 | 0.00 | 0.00 | 31 | 996.7 |
| 20260503214123 | 79 | 198 | 6.0 | 12.0 | 0.00 | 0.00 | 0.00 | 30 | 996.7 |
| 20260503213122 | 79 | 191 | 8.0 | 13.0 | 0.00 | 0.00 | 0.00 | 31 | 996.7 |
| 20260503212122 | 77 | 187 | 9.0 | 16.0 | 0.00 | 0.00 | 0.00 | 31 | 996.9 |
| 20260503211122 | 77 | 187 | 12.0 | 17.0 | 0.00 | 0.00 | 0.00 | 32 | 997.0 |
| 20260503210122 | 77 | 198 | 9.0 | 14.0 | 0.00 | 0.00 | 0.00 | 31 | 997.0 |
| 20260503205122 | 77 | 177 | 11.0 | 16.0 | 0.00 | 0.00 | 0.00 | 32 | 997.2 |
| 20260503204144 | 76 | 188 | 11.0 | 18.0 | 0.00 | 0.00 | 0.00 | 32 | 997.6 |
| 20260503203123 | 77 | 197 | 10.0 | 17.0 | 0.00 | 0.00 | 0.00 | 32 | 997.9 |
| 20260503202123 | 77 | 198 | 9.0 | 13.0 | 0.00 | 0.00 | 0.00 | 32 | 998.2 |
| 20260503201122 | 77 | 202 | 9.0 | 17.0 | 0.00 | 0.00 | 0.00 | 32 | 998.4 |
| 20260503200143 | 76 | 204 | 8.0 | 14.0 | 0.00 | 0.00 | 0.00 | 30 | 998.4 |
| 20260503195122 | 75 | 195 | 10.0 | 14.0 | 0.00 | 0.00 | 0.00 | 32 | 998.9 |
| 20260503194122 | 75 | 183 | 9.0 | 16.0 | 0.00 | 0.00 | 0.00 | 32 | 999.0 |
| 20260503193123 | 75 | 181 | 8.0 | 12.0 | 0.00 | 0.00 | 0.00 | 32 | 999.5 |
| 20260503192124 | 74 | 190 | 10.0 | 16.0 | 0.00 | 0.00 | 0.00 | 33 | 1000.0 |
| 20260503191123 | 73 | 196 | 10.0 | 17.0 | 0.00 | 0.00 | 0.00 | 33 | 1000.1 |
| 20260503190143 | 73 | 204 | 7.0 | 15.0 | 0.00 | 0.00 | 0.00 | 33 | 1000.1 |
| 20260503185123 | 73 | 182 | 9.0 | 13.0 | 0.00 | 0.00 | 0.00 | 34 | 1000.4 |
| 20260503184122 | 72 | 205 | 9.0 | 15.0 | 0.00 | 0.00 | 0.00 | 34 | 1000.6 |
| 20260503183122 | 71 | 173 | 11.0 | 17.0 | 0.00 | 0.00 | 0.00 | 37 | 1000.9 |
| 20260503182122 | 71 | 169 | 10.0 | 13.0 | 0.00 | 0.00 | 0.00 | 36 | 1001.5 |
| 20260503181122 | 71 | 184 | 10.0 | 16.0 | 0.00 | 0.00 | 0.00 | 36 | 1001.8 |
| 20260503180123 | 71 | 190 | 8.0 | 17.0 | 0.00 | 0.00 | 0.00 | 36 | 1001.8 |
| 20260503175124 | 69 | 189 | 10.0 | 18.0 | 0.00 | 0.00 | 0.00 | 37 | 1002.2 |
| 20260503174122 | 69 | 189 | 9.0 | 14.0 | 0.00 | 0.00 | 0.00 | 37 | 1002.6 |
| 20260503173122 | 69 | 201 | 9.0 | 15.0 | 0.00 | 0.00 | 0.00 | 38 | 1003.0 |
| 20260503172122 | 69 | 205 | 9.0 | 15.0 | 0.00 | 0.00 | 0.00 | 36 | 1003.2 |
| 20260503171143 | 69 | 201 | 9.0 | 15.0 | 0.00 | 0.00 | 0.00 | 38 | 1003.4 |
| 20260503170122 | 68 | 207 | 7.0 | 11.0 | 0.00 | 0.00 | 0.00 | 39 | 1003.4 |